{"data":{"norad_id":62570,"epoch":"2026-09-21T08:39:25.797600Z","epoch_age_seconds":97005,"freshness":"FRESH","line1":"1 62570U 25006S   26264.36071525  .00008142  00000+0  30500-3 0  9997","line2":"2 62570  43.0006 267.9025 0001512 266.6910  93.3769 15.27586416 94785","mean_motion":15.27586416,"eccentricity":0.0001512,"inclination_deg":43.0006,"raan_deg":267.9025,"arg_perigee_deg":266.691,"mean_anomaly_deg":93.3769,"bstar":0.000305,"rev_number":9478,"period_min":94.26635278485,"perigee_km":481.99247586185,"apogee_km":484.06729272766,"semimajor_km":6861.1668842948,"source":"CELESTRAK","updated_at":"2026-09-22T09:00:49.629320Z"}}